Change the Weather History Date:

Saturday, October 26, 2013

  Actual Average Record
Temperature  
Mean Temperature 28 °F -  
Max Temperature 30 °F 17 °F 43 °F (2002)
Min Temperature 25 °F 3 °F -29 °F (2008)
Degree Days  
Heating Degree Days 38    
Moisture  
Dew Point 22 °F    
Average Humidity 78    
Maximum Humidity 92    
Minimum Humidity 62    
Precipitation  
Precipitation 0.00 in - - ()
Sea Level Pressure  
Sea Level Pressure 30.37 in    
Wind  
Wind Speed 2 mph (North)    
Max Wind Speed 9 mph    
Max Gust Speed -    
Visibility 10 miles    
Events Snow    
Averages and records for this station are not official NWS values.
T = Trace of Precipitation, MM = Missing Value Source: NWS Daily Summary

Daily Weather History Graph

Daily Weather History Graph

Search for Another Location

Airport or City:

Trip Planner

Search our weather history database for the weather conditions in past years. The results will help you decide how hot, cold, wet, or windy it might be!

Date:

Astronomy

Oct. 26, 2013 Rise Set
Actual Time 9:47 AM AKDT 5:51 PM AKDT
Civil Twilight 8:48 AM AKDT 6:49 PM AKDT
Nautical Twilight 7:46 AM AKDT 7:52 PM AKDT
Astronomical Twilight 6:44 AM AKDT 8:53 PM AKDT
Moon No Moon Rise 4:28 PM AKDT (10/26)
Length of Visible Light 10h 00m
Length of Day
8h 04m
Waning Gibbous, 51% of the Moon is Illuminated
Oct 26
Waning Gibbous
Oct 26
Last Quarter
Nov 3
New
Nov 9
First Quarter
Nov 17
Full

Hourly Weather History & Observations

Time (AKDT) Temp. Windchill Dew Point Humidity Pressure Visibility Wind Dir Wind Speed Gust Speed Precip Events Conditions
12:53 AM 23.0 °F - 21.0 °F 92% 30.20 in 9.0 mi Calm Calm - N/A Snow Light Snow
1:53 AM 21.0 °F - 18.0 °F 88% 30.22 in 10.0 mi Calm Calm - N/A   Scattered Clouds
2:53 AM 23.0 °F - 21.0 °F 92% 30.23 in 10.0 mi Calm Calm - N/A   Mostly Cloudy
3:53 AM 25.0 °F 20.7 °F 21.0 °F 85% 30.24 in 7.0 mi North 3.5 mph - N/A Snow Light Snow
4:53 AM 25.0 °F - 21.0 °F 85% 30.27 in 9.0 mi Calm Calm - N/A Snow Light Snow
5:53 AM 25.0 °F - 19.9 °F 81% 30.29 in 10.0 mi Calm Calm - N/A   Overcast
6:53 AM 25.0 °F 20.7 °F 19.9 °F 81% 30.30 in 10.0 mi North 3.5 mph - N/A   Overcast
7:53 AM 25.0 °F - 19.9 °F 81% 30.32 in 10.0 mi Calm Calm - N/A   Overcast
8:53 AM 26.1 °F 21.9 °F 19.9 °F 78% 30.34 in 10.0 mi North 3.5 mph - N/A   Overcast
9:53 AM 26.1 °F 21.9 °F 19.9 °F 78% 30.37 in 10.0 mi NW 3.5 mph - N/A   Overcast
10:53 AM 27.0 °F - 21.0 °F 78% 30.39 in 10.0 mi Calm Calm - N/A   Overcast
11:53 AM 28.0 °F 24.2 °F 21.0 °F 75% 30.41 in 10.0 mi NNW 3.5 mph - N/A   Overcast
12:53 PM 28.9 °F 25.2 °F 21.0 °F 72% 30.43 in 10.0 mi North 3.5 mph - N/A   Mostly Cloudy
1:53 PM 30.0 °F 26.5 °F 21.0 °F 69% 30.45 in 10.0 mi North 3.5 mph - N/A   Overcast
2:53 PM 30.9 °F 27.5 °F 21.9 °F 69% 30.45 in 10.0 mi North 3.5 mph - N/A   Overcast
3:53 PM 30.9 °F - 23.0 °F 72% 30.46 in 10.0 mi Calm Calm - N/A   Overcast
4:53 PM 30.9 °F 26.2 °F 23.0 °F 72% 30.44 in 10.0 mi NNE 4.6 mph - N/A   Overcast
5:53 PM 30.9 °F 27.5 °F 23.0 °F 72% 30.46 in 10.0 mi North 3.5 mph - N/A   Overcast
6:53 PM 30.9 °F 24.3 °F 24.1 °F 76% 30.46 in 10.0 mi North 6.9 mph - N/A   Overcast
7:53 PM 30.0 °F 21.7 °F 24.1 °F 79% 30.45 in 10.0 mi NNE 9.2 mph - N/A   Overcast
8:53 PM 30.0 °F 24.1 °F 24.1 °F 79% 30.46 in 10.0 mi North 5.8 mph - N/A   Overcast
9:51 PM 30.2 °F 22.6 °F 24.8 °F 80% 30.39 in 10.0 mi NNE 8.1 mph - N/A   Scattered Clouds
9:53 PM 30.0 °F 22.4 °F 24.1 °F 79% 30.44 in 10.0 mi NNE 8.1 mph - N/A   Scattered Clouds
10:53 PM 28.0 °F 19.3 °F 23.0 °F 81% 30.41 in 10.0 mi NNE 9.2 mph - N/A   Partly Cloudy
11:53 PM 28.0 °F 19.3 °F 23.0 °F 81% 30.38 in 10.0 mi NNE 9.2 mph - N/A   Clear